Regional Weather Roundup
Issued by NWS Wakefield, VA

Home | Current Version | Previous Version | Text Only | Print | Product List | Glossary On
Versions: 1 2 3 4 5 6 7 8 9 10 11 12 13 14 15 16 17 18 19 20 21 22 23 24 25 26 27
000
ASUS41 KAKQ 121215
RWRAKQ

REGIONAL WEATHER ROUNDUP
NATIONAL WEATHER SERVICE WAKEFIELD VA
700 AM EST TUE DEC 12 2017

Note: "fair" indicates few or no clouds below 12,000 feet with no
significant weather and/or obstructions to visibility. * = Denotes
station may not report precipitation (e.g., rain,snow,etc.),
thunder or fog.

VAZ042-051-052>054-056-121300-
NORTHERN VIRGINIA

CITY           SKY/WX    TMP DP  RH WIND       PRES   REMARKS
WASH NATIONAL  CLOUDY    42  32  67 S13       29.62F
DULLES         CLOUDY    38  31  76 S8        29.60F
FORT BELVOIR   CLOUDY    41  31  66 S5        29.61F
QUANTICO       CLOUDY    43  34  70 S13       29.63F
FREDERICKSBRG* MOCLDY    41  33  74 S6        29.62F
STAFFORD*      CLOUDY    39  32  76 S5        29.66F
WARRENTON      CLOUDY    40  29  63 SW5       29.60F
CULPEPER*      MOCLDY    39  30  68 S3        29.62F
MANASSAS*      MOCLDY    38  30  73 S5        29.61F
LEESBURG*      MOCLDY    37  32  81 CALM      29.61S
WINCHESTER     CLOUDY    37  28  70 W7        29.58S
FRONT ROYAL*   CLOUDY    34  30  86 CALM      29.58R
LURAY*         MOSUNNY   43  32  65 SW9       29.57F
$$

VAZ048-049-060>072-079>083-121300-
CENTRAL AND SOUTH CENTRAL VIRGINIA

CITY           SKY/WX    TMP DP  RH WIND       PRES   REMARKS
RICHMOND       CLOUDY    39  32  76 SW8       29.66F
CHESTERFIELD*  NOT AVBL
PETERSBURG*    CLOUDY    37  30  75 S3        29.67F
HANOVER        CLOUDY    39  31  72 S5        29.67F
TAPPAHANNOCK*    N/A    N/A N/A N/A MISG        N/A
QUINTON*       FAIR      40  32  74 S5        29.67F
CHARLOTTSVILLE MOCLDY    38  30  73 SW8       29.59F
GORDONSVILLE*  PTSUNNY   36  31  82 SW6       29.61F
ORANGE*        MOCLDY    36  30  80 CALM      29.62S
LOUISA*        CLOUDY    38  30  73 S7        29.66F
BUMPASS*       FAIR      39  31  72 S7        29.63F
FARMVILLE*     CLOUDY    38  34  85 S6        29.65F
CREWE*         FAIR      38  34  84 S3        29.67F
FORT PICKETT*  NOT AVBL
CHASE CITY*    FAIR      35  34  95 CALM      29.69S
CLARKSVILLE*   FAIR      36  32  87 S6        29.69F
SOUTH HILL*    PTCLDY    37  33  87 S9        29.74F
LAWRENCEVILLE* FAIR      38  32  79 SW3       29.69F
EMPORIA*       CLOUDY    36  32  87 S3        29.73F
$$

VAZ088>098-121300-
SOUTHEAST VIRGINIA

CITY           SKY/WX    TMP DP  RH WIND       PRES   REMARKS
NORFOLK        PTCLDY    43  33  68 S14       29.70F
VIRGINIA BEACH CLOUDY    42  32  67 SW12      29.71F
NORFOLK NAVAL  MOCLDY    43  32  65 S10G18    29.71F
WEST POINT*    CLOUDY   N/A N/A N/A S6        29.69F
SALUDA*        FAIR      42  33  72 S6        29.67F
NEWPORT NEWS   CLOUDY    43  33  68 SW17      29.69F
LANGLEY AFB    MOCLDY    42  34  71 SW14G21   29.69F
FORT EUSTIS    PTCLDY    42  33  70 S6        29.67F
WILLIAMSBURG*  PTCLDY    45  34  65 CALM      29.70S
HR EXEC AP*    FAIR      40  33  76 S12       29.71F
FRANKLIN*      CLOUDY    38  32  78 S7        29.72S
US460-WAKEFLD  PTCLDY    40  33  76 VRB5      29.70F
$$

VAZ020-022-025-037-045-121300-
WEST CENTRAL AND SOUTHWEST VIRGINIA

CITY           SKY/WX    TMP DP  RH WIND       PRES   REMARKS
STAUNTON*      PTCLDY    34  27  75 CALM      29.61S
WAYNESBORO*    CLOUDY    41  29  60 SW5       29.59S
HOT SPRINGS VA CLOUDY    34  24  66 W18G30    29.56R WCI  23
LYNCHBURG      CLOUDY    35  30  82 SW5       29.65F
DANVILLE       PTCLDY    33  31  92 SW5       29.70F
SOUTH BOSTON*  FAIR      38  32  78 SW5       29.69S
MARTINSVILLE   MOCLDY    29  27  93 CALM      29.72S
ROANOKE        MOCLDY    40  30  67 S6        29.66S
BLACKSBURG     MOCLDY    33  29  86 CALM      29.68S
DUBLIN*        CLOUDY    38  30  73 SW3       29.67F
MARION*        CLEAR     40  28  61 W20G28    29.69S
HILLSVILLE*    PTCLDY    38  30  74 SW7       29.66R
RICHLANDS*     CLOUDY    38   9  29 W12G21    29.73R
WISE*          CLOUDY    37  30  75 NW7       29.76R
ABINGDON*      MOCLDY    39  32  76 W5        29.75S
$$

MDZ021>025-VAZ099-100-121300-
SOUTHERN MARYLAND AND THE DELMARVA PENINSULA

CITY           SKY/WX    TMP DP  RH WIND       PRES   REMARKS
PATUXENT RIVER CLOUDY    43  33  68 SW13      29.64F
BAY BRIDGE APT CLOUDY    45  36  70 S13       29.63F
LEONARDTOWN    CLOUDY    41  32  70 SW6       29.66F
DOVER          CLEAR     43  37  81 S12       29.64F
GEORGETOWN     MOCLDY    44  32  62 S9        29.66F
EASTON         CLEAR     45  36  70 SW8       29.68F
CAMBRIDGE      CLEAR     43  37  81 S7        29.66F
SALISBURY      PTCLDY    41  33  73 SE8       29.66F
OCEAN CITY     PTCLDY    46  39  76 SW9       29.69F
WALLOPS ISLAND PTCLDY    46  38  73 S13       29.69F
ACCOMACK*      MOCLDY    45  35  68 S10G17    29.67F
$$

NCZ012>017-030>032-121300-
NORTH CENTRAL AND EASTERN NORTH CAROLINA

CITY           SKY/WX    TMP DP  RH WIND       PRES   REMARKS
ROANOKE RAPIDS FAIR      37  34  87 CALM      29.73S
RALEIGH        CLOUDY    39  34  82 SW8       29.73F
ELIZABETH CITY CLEAR     44  39  82 S12       29.74F
AHOSKIE*       PTCLDY    39  33  80 S3        29.74F
EDENTON*       CLEAR     43  37  80 S9        29.77F
CURRITUCK*     CLEAR     41  36  81 S3        29.75F
KILL DEVIL HLS CLEAR     43  36  75 SW8       29.76F
MANTEO         CLEAR     43  38  82 SW13      29.78F
CAPE HATTERAS  CLEAR     57  45  64 SW17G26   29.80F
TARBORO*       NOT AVBL
GOLDSBORO      PTCLDY    41  35  78 S7        29.75F
WASHINGTON     PTCLDY    40  35  83 SW6       29.78F
GREENVILLE     CLEAR     39  34  81 S8        29.79F
NEW BERN       CLEAR     41  38  89 SW8       29.81S
WILMINGTON     CLEAR     47  39  74 SW8       29.83S
$$

VAZ048-121300-
ELSEWHERE

CITY           SKY/WX    TMP DP  RH WIND       PRES   REMARKS
HARRISBURG PA  CLOUDY    37  32  82 VRB3      29.59F
BALTIMORE      CLOUDY    40  32  73 S3        29.61F
ANNAPOLIS      CLOUDY    44  34  67 S8        29.62F
ANDREWS AFB    MOCLDY    41  31  67 S8        29.60F
PHILADELPHIA   CLOUDY    45  35  68 S10       29.65F
HENDERSON NC   CLOUDY    35  30  83 SW6       29.70F
GREENSBORO     MOCLDY    37  33  85 SW7       29.70S
ROCKY MOUNT    PTCLDY    38  35  89 SW6       29.76S
$$

VAZ100-121300-
MARINE

STATION/POSITION TIME  TEMP    WIND        PRES    WAVE   SWELL
                       AIR SEA DIR/SP/G            HT/PER HT/PER
                 (UTC) (F)     (DEG/KT/KT) (MB)    (FT/S) (FT/S)
BRANDYWINE LGT   1142   48     190/ 22/ 25 1004.7F
CAPE MAY NJ      1148   49 45  190/ 11/ 17 1004.3F
LEWES DE         1142   46 47  180/  6/ 10 1004.6F
15NM E FENWICK I 1150   52 53  190/ 19/ 23 1005.6F   5/ 5   2/ 9
OCEAN-CITY-INLET 1142   47 49  220/ 12/ 15 1005.6F
WACHAPREAGUE VA  1142   45 43  210/ 10/ 13 1005.3F
THOMAS POINT MD  1200   45 47  190/ 16/ 18   N/A
GOOSES REEF MD   1200   45 47  200/ 17/ 21 1003.7    2/ 3
COVE POINT MD    1142   44     220/ 18/ 22 1004.2F
SOLOMONS ISLAND  1142   44 48  210/ 13/ 17 1003.5F
BISHOPS HEAD MD  1142   45 42  180/ 13/ 15 1004.6F
PINEY POINT MD   1142          230/  9/ 10   N/A
POTOMAC MD       1200   45 48  200/ 12/ 16 1003.5    2/ 3
CAMBRIDGE MD     1142   44 45              1004.6F
LEWISETTA VA     1142   42 43  230/  9/ 12 1004.2F
RAPPAHANNOCK LGT 1142          190/ 22/ 27 1005.2F
STINGRAY PT      1150   46     220/ 12/ 14 1004.9F
YORK RVR RNG VA  1142   45     210/ 15/ 16 1005.7F
YORKTOWN VA      1142   45 49  220/ 10/ 15 1004.7F
JAMESTOWN VA     1200      48  220/  8/ 10   N/A     0
DOMINION TERM VA 1142   44     200/ 11/ 14 1005.9F
KIPTOPEKE VA     1142      47  200/ 17/ 21   N/A
CAPE HENRY VA    1142   43     190/ 10/ 14   N/A
WILLOUBY STN VA  1142          200/ 15/ 17 1005.3F
S CRANEY ISL VA  1142   44     200/ 12/ 16 1005.8F
CAPE HENRY BUOY  1200      53                N/A     3/ 4
1ST LANDING BUOY 1200   45 52  210/ 17/ 23 1005.9    2/ 2
CAPE CHARLES BUO 1151      53                N/A     3/ 4
64NM E OF VA BCH 1150   54 60  230/ 21/ 25 1007.8    4/ 4   2/ 8
DUCK PIER NC     1142   45 54  190/ 10/ 13 1007.2F
44100 DUCK FRF   1145      54                N/A     2/ 9
44056 DUCK FRF   1130      54                N/A     1/11
OREGON INLET NC  1142   49 46  200/ 14/ 16 1008.6F
HATTERAS NC      1142   57 54  230/ 16/ 21 1009.0F
DIAMOND SHLS NC  1150   62 74  230/ 21/ 27 1009.7F   5/ 5   2/ 9
CAPE LOOKOUT NC  1200          230/ 12/ 16 1009.8F
$$




USA.gov is the U.S. government's official web portal to all federal, state and local government web resources and services.